DLH9MA EPPO-EDDF

Flight info

Callsign DLH9MA
Flight time N/A
Altitude 38000
Route ELSUP Z181 XIGRI DCT KUBOG DCT NIMAB T171 MAIXE T171 LASTO T178 ROBEL/N0397F240 T178 KERAX KERAX5A
Aircraft A319/M-SDE3FGHIRWY/LB1

Departure

Time 2026-05-04 08:31
Airport Poznań-Ławica Airport (EPPO)

Arrival

Time N/A
Airport Frankfurt Main Airport (EDDF)
Time Latitude Longitude Altitude Speed Heading
2026-05-04 07:56 52.41575 16.82733 288 ft 0 kts 181°
2026-05-04 08:24 52.41670 16.82748 288 ft 0 kts 96°
2026-05-04 08:26 52.41669 16.82760 288 ft 2 kts 96°
2026-05-04 08:27 52.41573 16.83544 288 ft 14 kts 96°
2026-05-04 08:28 52.41567 16.83705 288 ft 15 kts 92°
2026-05-04 08:28 52.41570 16.83871 292 ft 15 kts 67°
2026-05-04 08:28 52.41645 16.83983 293 ft 15 kts 26°
2026-05-04 08:28 52.41742 16.84047 288 ft 15 kts 20°
2026-05-04 08:29 52.41818 16.84070 291 ft 10 kts 334°
2026-05-04 08:29 52.41844 16.83961 293 ft 12 kts 287°
2026-05-04 08:29 52.41925 16.83543 290 ft 76 kts 288°
2026-05-04 08:31 52.44312 16.71581 3759 ft 202 kts 279°
2026-05-04 08:33 52.45795 16.52855 9293 ft 265 kts 273°
2026-05-04 08:33 52.46031 16.49845 10213 ft 268 kts 273°
2026-05-04 08:35 52.47911 16.25348 14949 ft 327 kts 274°
2026-05-04 08:35 52.48194 16.21631 15648 ft 330 kts 274°
2026-05-04 08:35 52.48480 16.17868 16344 ft 334 kts 274°
2026-05-04 08:35 52.48765 16.14056 17042 ft 337 kts 274°
2026-05-04 08:37 52.50528 15.90424 20769 ft 358 kts 275°
2026-05-04 08:37 52.50826 15.86334 21372 ft 362 kts 275°
2026-05-04 08:37 52.51118 15.82264 21959 ft 365 kts 275°
2026-05-04 08:38 52.51412 15.78098 22554 ft 369 kts 275°
2026-05-04 08:38 52.51707 15.73896 23162 ft 372 kts 275°
2026-05-04 08:38 52.52007 15.69644 23698 ft 376 kts 275°
2026-05-04 08:40 52.53949 15.39270 26991 ft 388 kts 266°
2026-05-04 08:40 52.53799 15.34821 27443 ft 390 kts 265°
2026-05-04 08:40 52.53644 15.30353 27897 ft 392 kts 265°
2026-05-04 08:41 52.53488 15.25864 28359 ft 394 kts 265°
2026-05-04 08:41 52.53331 15.21408 28790 ft 396 kts 265°
2026-05-04 08:41 52.53170 15.16876 29223 ft 398 kts 265°
2026-05-04 08:41 52.53006 15.12314 29654 ft 400 kts 265°
2026-05-04 08:42 52.52837 15.07735 30048 ft 403 kts 265°
2026-05-04 08:42 52.52665 15.03126 30384 ft 405 kts 265°
2026-05-04 08:42 52.52494 14.98503 30714 ft 407 kts 265°
2026-05-04 08:42 52.52325 14.93854 31045 ft 408 kts 265°
2026-05-04 08:43 52.52157 14.89186 31369 ft 410 kts 265°
2026-05-04 08:43 52.51987 14.84562 31688 ft 412 kts 265°
2026-05-04 08:43 52.51811 14.79863 32134 ft 410 kts 265°
2026-05-04 08:43 52.51633 14.75196 32624 ft 408 kts 265°
2026-05-04 08:44 52.51454 14.70564 33111 ft 405 kts 265°
2026-05-04 08:44 52.51258 14.65958 33614 ft 403 kts 262°
2026-05-04 08:46 52.43310 14.37208 36072 ft 398 kts 242°
2026-05-04 08:46 52.42018 14.33204 36354 ft 398 kts 242°
2026-05-04 08:46 52.40719 14.29192 36633 ft 398 kts 242°
2026-05-04 08:46 52.39419 14.25186 36905 ft 398 kts 242°
2026-05-04 08:47 52.38118 14.21182 37170 ft 399 kts 242°
2026-05-04 08:47 52.36830 14.17224 37428 ft 399 kts 242°
2026-05-04 08:47 52.35521 14.13209 37678 ft 399 kts 242°
2026-05-04 08:47 52.34213 14.09202 37914 ft 400 kts 241°
2026-05-04 08:48 52.32897 14.05182 37999 ft 400 kts 241°
2026-05-04 08:48 52.30290 13.97223 37991 ft 399 kts 241°
2026-05-04 08:49 52.27659 13.89224 37986 ft 399 kts 241°
2026-05-04 08:50 52.18403 13.61323 37984 ft 401 kts 241°
2026-05-04 08:51 52.15742 13.53338 37990 ft 401 kts 241°
2026-05-04 08:51 52.13069 13.45347 37986 ft 401 kts 240°
2026-05-04 08:52 52.10380 13.37364 37979 ft 402 kts 240°
2026-05-04 08:52 52.07700 13.29425 37985 ft 403 kts 240°
2026-05-04 08:54 51.96852 12.97473 38000 ft 405 kts 240°
2026-05-04 08:55 51.94092 12.89490 38015 ft 405 kts 239°
2026-05-04 08:55 51.91199 12.81638 38000 ft 406 kts 238°
2026-05-04 09:01 51.60290 11.99868 38031 ft 405 kts 237°
2026-05-04 09:01 51.57214 11.92341 38033 ft 405 kts 237°
2026-05-04 09:02 51.54096 11.84777 38027 ft 404 kts 237°
2026-05-04 09:02 51.51023 11.77280 38033 ft 404 kts 237°
2026-05-04 09:03 51.47938 11.69744 38021 ft 404 kts 237°
2026-05-04 09:03 51.44855 11.62209 38027 ft 403 kts 237°
2026-05-04 09:04 51.41767 11.54677 38026 ft 403 kts 237°
2026-05-04 09:04 51.38631 11.47312 38034 ft 403 kts 231°
2026-05-04 09:05 51.34524 11.41154 38035 ft 405 kts 223°
2026-05-04 09:05 51.30272 11.35206 38023 ft 405 kts 223°
2026-05-04 09:06 51.26060 11.29306 38030 ft 405 kts 223°
2026-05-04 09:07 51.11797 11.07773 38042 ft 402 kts 240°
2026-05-04 09:08 51.10480 11.03907 38038 ft 401 kts 242°
2026-05-04 09:08 51.07831 10.96090 38041 ft 401 kts 242°
2026-05-04 09:09 51.05161 10.88286 38047 ft 401 kts 242°
2026-05-04 09:09 51.02492 10.80498 38046 ft 401 kts 242°
2026-05-04 09:10 50.99830 10.72721 38040 ft 400 kts 242°
2026-05-04 09:10 50.97184 10.65007 38041 ft 399 kts 241°
2026-05-04 09:11 50.94516 10.57271 38041 ft 399 kts 241°
2026-05-04 09:11 50.91825 10.49569 38038 ft 399 kts 237°
2026-05-04 09:12 50.88059 10.43168 38033 ft 401 kts 217°
2026-05-04 09:14 50.67540 10.28802 38018 ft 401 kts 217°
2026-05-04 09:14 50.63632 10.22678 38014 ft 396 kts 237°
2026-05-04 09:15 50.60944 10.15159 37659 ft 397 kts 242°
2026-05-04 09:15 50.59619 10.11340 37070 ft 397 kts 241°
2026-05-04 09:15 50.58290 10.07525 36372 ft 397 kts 241°
2026-05-04 09:15 50.56957 10.03707 35682 ft 398 kts 241°
2026-05-04 09:17 50.49809 9.71674 31292 ft 378 kts 253°
2026-05-04 09:18 50.49114 9.67707 30805 ft 375 kts 253°
2026-05-04 09:18 50.48433 9.63730 29928 ft 381 kts 253°
2026-05-04 09:18 50.47745 9.59691 29121 ft 383 kts 253°
2026-05-04 09:18 50.47048 9.55663 28478 ft 381 kts 252°
2026-05-04 09:19 50.46322 9.51671 27878 ft 378 kts 252°
2026-05-04 09:19 50.45575 9.47717 27298 ft 375 kts 251°
2026-05-04 09:19 50.44833 9.43862 26741 ft 373 kts 251°
2026-05-04 09:19 50.44083 9.39986 26210 ft 370 kts 251°
2026-05-04 09:20 50.43341 9.36133 25701 ft 368 kts 251°
2026-05-04 09:20 50.42606 9.32300 25202 ft 366 kts 251°
2026-05-04 09:20 50.41878 9.28490 24714 ft 364 kts 251°
2026-05-04 09:20 50.41153 9.24703 24254 ft 362 kts 251°
2026-05-04 09:21 50.40370 9.20962 23800 ft 359 kts 249°
2026-05-04 09:21 50.39529 9.17289 23292 ft 357 kts 248°
2026-05-04 09:21 50.38671 9.13692 22777 ft 356 kts 248°
2026-05-04 09:21 50.37798 9.10070 22200 ft 355 kts 248°
2026-05-04 09:22 50.36921 9.06416 21465 ft 360 kts 248°
2026-05-04 09:22 50.36042 9.02705 20747 ft 365 kts 248°
2026-05-04 09:22 50.35163 8.98955 20047 ft 369 kts 248°